Skip Page Navigation
NASA JPL Caltech
NASA Logo - Jet Propulsion Laboratory + View the NASA Portal
+ Center for Near-Earth Object Studies
JPL Home Earth Solar System Stars & Galaxies Technology
JPL Solar System Dynamics
BODIES ORBITS EPHEMERIDES TOOLS PHYSICAL DATA DISCOVERY FAQ SITE MAP
JPL Small-Body Database Browser
Search: [ help ]  
160680 (2000 DX11)
Classification: Main-belt Asteroid          SPK-ID: 2160680
Ephemeris | Orbit Diagram | Orbital Elements | Mission Design | Physical Parameters | Discovery Circumstances ]

[ show orbit diagram ]
Orbital Elements at Epoch 2459000.5 (2020-May-31.0) TDB
Reference: JPL 19 (heliocentric ecliptic J2000)
 Element Value Uncertainty (1-sigma)   Units 
e .02530606942921968 4.1158e-08  
a 2.951906397065557 1.9928e-08 au
q 2.877205248832858 1.2403e-07 au
i 13.47944193963052 4.6791e-06 deg
node 176.2979199541981 1.9959e-05 deg
peri 263.2641018247973 9.5147e-05 deg
M 93.33122297628118 9.2977e-05 deg
tp 2458520.239624516272
(2019-Feb-05.73962452)
0.00047852 TDB
period 1852.474763114166
5.07
1.8758e-05
5.136e-08
d
yr
n .1943346312555479 1.9679e-09 deg/d
Q 3.026607545298256 2.0432e-08 au
  Orbit Determination Parameters
   # obs. used (total)      702  
   data-arc span      7275 days (19.92 yr)  
   first obs. used      2000-02-27  
   last obs. used      2020-01-28  
   planetary ephem.      DE431  
   SB-pert. ephem.      SB431-N16  
   condition code      0  
   norm. resid. RMS      .59316  
   source      ORB  
   producer      Otto Matic  
   solution date      2020-Feb-24 13:23:07  

Additional Information
 Earth MOID = 1.9205 au 
 Jupiter MOID = 2.02388 au 
 T_jup = 3.227 
[ show covariance matrix ]

Ephemeris | Orbit Diagram | Orbital Elements | Mission Design | Physical Parameters | Discovery Circumstances ]

Physical Parameter Table
Parameter Symbol Value Units Sigma Reference Notes
absolute magnitude H 14.9   n/a MPO338316  

160680 (2000 DX11)          Discovered 2000-Feb-27 by Spacewatch at Kitt Peak
Reference: 20070828/Numbers.arcLast Updated: 2007-08-30

Alternate Designations
 2000 DX11 = 2002 RR14 
Ephemeris | Orbit Diagram | Orbital Elements | Mission Design | Physical Parameters | Discovery Circumstances ]
ABOUT SSD CREDITS/AWARDS PRIVACY/COPYRIGHT GLOSSARY LINKS
FirstGov 2020-Jul-13 08:49 UT
(server date/time)  
NASA Home Page
Site Manager:   Ryan S. Park
Webmaster  Alan B. Chamberlin